| time (UTC) | temp F | wind direction | speed MPH | gust MPH | rain 1hr in | rain 24hr in | rain mn in | humidity % | barometer mb |
| 20260504034530 | 50 | 140 | 9.0 | 17.0 | 0.00 | 0.00 | 0.00 | 40 | 1014.8 |
| 20260504033031 | 51 | 140 | 7.0 | 17.0 | 0.00 | 0.00 | 0.00 | 40 | 1014.6 |
| 20260504031533 | 52 | 140 | 7.0 | 21.0 | 0.00 | 0.00 | 0.00 | 39 | 1014.4 |
| 20260504030028 | 52 | 140 | 8.0 | 17.0 | 0.00 | 0.00 | 0.00 | 39 | 1014.1 |
| 20260504024533 | 53 | 140 | 7.0 | 18.0 | 0.00 | 0.00 | 0.00 | 38 | 1013.9 |
| 20260504023031 | 54 | 140 | 10.0 | 20.0 | 0.00 | 0.00 | 0.00 | 39 | 1013.7 |
| 20260504021530 | 54 | 140 | 8.0 | 16.0 | 0.00 | 0.00 | 0.00 | 41 | 1013.6 |
| 20260504020032 | 54 | 140 | 8.0 | 15.0 | 0.00 | 0.00 | 0.00 | 43 | 1013.7 |
| 20260504014538 | 54 | 141 | 8.0 | 20.0 | 0.00 | 0.00 | 0.00 | 42 | 1013.5 |
| 20260504013036 | 55 | 140 | 11.0 | 22.0 | 0.00 | 0.00 | 0.00 | 40 | 1013.5 |
| 20260504011531 | 56 | 141 | 10.0 | 24.0 | 0.00 | 0.00 | 0.00 | 39 | 1013.3 |
| 20260504010030 | 56 | 140 | 7.0 | 16.0 | 0.00 | 0.00 | 0.00 | 41 | 1013.0 |
| 20260504004533 | 56 | 140 | 10.0 | 21.0 | 0.00 | 0.00 | 0.00 | 40 | 1012.9 |
| 20260504003028 | 57 | 140 | 10.0 | 19.0 | 0.00 | 0.00 | 0.00 | 40 | 1012.7 |
| 20260504001528 | 56 | 140 | 6.0 | 19.0 | 0.00 | 0.00 | 0.00 | 42 | 1012.5 |
| 20260504000031 | 57 | 140 | 10.0 | 20.0 | 0.00 | 0.00 | 0.00 | 41 | 1012.5 |
| 20260503234530 | 57 | 140 | 9.0 | 16.0 | 0.00 | 0.00 | 0.00 | 41 | 1012.4 |
| 20260503233033 | 57 | 140 | 9.0 | 18.0 | 0.00 | 0.00 | 0.00 | 39 | 1012.2 |
| 20260503231528 | 58 | 140 | 11.0 | 21.0 | 0.00 | 0.00 | 0.00 | 38 | 1012.1 |
| 20260503230030 | 58 | 140 | 9.0 | 21.0 | 0.00 | 0.00 | 0.00 | 39 | 1012.1 |
| 20260503224529 | 59 | 139 | 11.0 | 26.0 | 0.00 | 0.00 | 0.00 | 37 | 1011.9 |
| 20260503223028 | 59 | 140 | 13.0 | 23.0 | 0.00 | 0.00 | 0.00 | 37 | 1011.7 |
| 20260503221529 | 59 | 140 | 12.0 | 20.0 | 0.00 | 0.00 | 0.00 | 36 | 1011.6 |
| 20260503220041 | 59 | 140 | 13.0 | 24.0 | 0.00 | 0.00 | 0.00 | 36 | 1011.7 |
| 20260503214530 | 59 | 140 | 10.0 | 25.0 | 0.00 | 0.00 | 0.00 | 37 | 1011.6 |
| 20260503213030 | 59 | 139 | 13.0 | 26.0 | 0.00 | 0.00 | 0.00 | 37 | 1011.6 |
| 20260503211527 | 59 | 140 | 11.0 | 22.0 | 0.00 | 0.00 | 0.00 | 37 | 1011.6 |
| 20260503210027 | 59 | 140 | 11.0 | 22.0 | 0.00 | 0.00 | 0.00 | 37 | 1011.6 |
| 20260503204527 | 59 | 140 | 10.0 | 21.0 | 0.00 | 0.00 | 0.00 | 36 | 1011.5 |
| 20260503203044 | 59 | 140 | 10.0 | 23.0 | 0.00 | 0.00 | 0.00 | 38 | 1011.5 |
| 20260503201533 | 59 | 140 | 12.0 | 22.0 | 0.00 | 0.00 | 0.00 | 37 | 1011.5 |
| 20260503200027 | 59 | 141 | 12.0 | 24.0 | 0.00 | 0.00 | 0.00 | 37 | 1011.4 |
| 20260503194538 | 60 | 139 | 16.0 | 27.0 | 0.00 | 0.00 | 0.00 | 36 | 1011.4 |
| 20260503193032 | 60 | 139 | 11.0 | 25.0 | 0.00 | 0.00 | 0.00 | 35 | 1011.3 |
| 20260503191530 | 61 | 139 | 12.0 | 22.0 | 0.00 | 0.00 | 0.00 | 34 | 1011.1 |
| 20260503190038 | 61 | 139 | 13.0 | 26.0 | 0.00 | 0.00 | 0.00 | 35 | 1011.0 |
| 20260503184530 | 61 | 140 | 10.0 | 26.0 | 0.00 | 0.00 | 0.00 | 35 | 1011.2 |
| 20260503183031 | 61 | 140 | 9.0 | 22.0 | 0.00 | 0.00 | 0.00 | 36 | 1011.2 |
| 20260503181530 | 61 | 140 | 8.0 | 20.0 | 0.00 | 0.00 | 0.00 | 35 | 1011.0 |
| 20260503180033 | 61 | 140 | 10.0 | 22.0 | 0.00 | 0.00 | 0.00 | 34 | 1011.1 |
| 20260503174528 | 60 | 139 | 11.0 | 21.0 | 0.00 | 0.00 | 0.00 | 35 | 1011.2 |
| 20260503173031 | 61 | 139 | 7.0 | 19.0 | 0.00 | 0.00 | 0.00 | 38 | 1011.3 |
| 20260503171532 | 61 | 140 | 8.0 | 17.0 | 0.00 | 0.00 | 0.00 | 36 | 1011.2 |
| 20260503081536 | 57 | 139 | 6.0 | 10.0 | 0.00 | 0.00 | 0.00 | 37 | 1010.8 |
| 20260503071527 | 56 | 139 | 6.0 | 9.0 | 0.00 | 0.00 | 0.00 | 44 | 1011.0 |
| 20260503054550 | 60 | 139 | 6.0 | 10.0 | 0.00 | 0.00 | 0.00 | 34 | 1010.7 |
| 20260503053037 | 59 | 139 | 5.0 | 8.0 | 0.00 | 0.00 | 0.00 | 37 | 1010.4 |
| 20260503051526 | 57 | 0 | 1.0 | 5.0 | 0.00 | 0.00 | 0.00 | 47 | 1010.7 |
| 20260503050028 | 59 | 139 | 2.0 | 3.0 | 0.00 | 0.00 | 0.00 | 42 | 1010.7 |
| 20260503044525 | 63 | 139 | 2.0 | 4.0 | 0.00 | 0.00 | 0.00 | 31 | 1010.6 |
| 20260503043029 | 63 | 139 | 3.0 | 5.0 | 0.00 | 0.00 | 0.00 | 29 | 1010.4 |
| 20260503041530 | 64 | 139 | 3.0 | 4.0 | 0.00 | 0.00 | 0.00 | 28 | 1010.3 |
| 20260503040035 | 64 | 139 | 2.0 | 3.0 | 0.00 | 0.00 | 0.00 | 28 | 1010.6 |